Weather History for Youngstown, OH

Change the Weather History Date:

Friday, November 2, 2012

  Actual Average Record
Temperature  
Mean Temperature 39 °F 46 °F  
Max Temperature 41 °F 55 °F 78 °F (1982)
Min Temperature 36 °F 38 °F 24 °F (2010)
Degree Days  
Heating Degree Days 26 19  
Month to date heating degree days 52 38  
Since 1 July heating degree days 648 659  
Cooling Degree Days 0 0  
Month to date cooling degree days 0 0  
Year to date cooling degree days 761 544  
Moisture  
Dew Point 31 °F    
Average Humidity 75    
Maximum Humidity 85    
Minimum Humidity 64    
Precipitation  
Precipitation T in 0.11 in 1.49 in (1966)
Month to date precipitation 0.19 0.21  
Year to date precipitation 39.27 32.95  
Snow  
Snow 0.00 in 0.10 in - ()
Month to date snowfall 0.0 0.1  
Since 1 July snowfall T 0.9  
Since 1 September snowfall 0.0 0.9  
Snow Depth 0.00 in    
Sea Level Pressure  
Sea Level Pressure 29.86 in    
Wind  
Wind Speed 9 mph (WNW)    
Max Wind Speed 20 mph    
Max Gust Speed 25 mph    
Visibility 10 miles    
Events Rain    
T = Trace of Precipitation, MM = Missing Value Source: NWS Daily Summary

Daily Weather History Graph

Daily Weather History Graph

Search for Another Location

Airport:

Trip Planner

Search our weather history database for the weather conditions in past years. The results will help you decide how hot, cold, wet, or windy it might be!

Date:

Astronomy

Nov. 02, 2012 Rise Set
Actual Time 7:55 AM EDT 6:16 PM EDT
Civil Twilight 7:26 AM EDT 6:44 PM EDT
Nautical Twilight 6:54 AM EDT 7:17 PM EDT
Astronomical Twilight 6:22 AM EDT 7:49 PM EDT
Moon 9:00 PM EDT (11/2) 11:16 AM EDT (11/2)
Length of Visible Light 11h 17m
Length of Day
10h 20m
Waning Gibbous, 87% of the Moon is Illuminated
Nov 2
Waning Gibbous
Nov 6
Last Quarter
Nov 13
New
Nov 20
First Quarter
Nov 28
Full

Hourly Weather History & Observations

Time (EDT) Temp. Windchill Dew Point Humidity Pressure Visibility Wind Dir Wind Speed Gust Speed Precip Events Conditions
12:51 AM 37.0 °F 33.3 °F 34.0 °F 89% 29.75 in 10.0 mi West 4.6 mph - N/A   Overcast
1:51 AM 37.0 °F 31.6 °F 34.0 °F 89% 29.74 in 10.0 mi SW 6.9 mph - N/A   Overcast
2:51 AM 37.9 °F 33.5 °F 34.0 °F 86% 29.74 in 10.0 mi West 5.8 mph - N/A   Overcast
3:51 AM 37.9 °F 33.5 °F 34.0 °F 86% 29.75 in 10.0 mi West 5.8 mph - 0.00 in Rain Light Rain
4:51 AM 37.9 °F 33.5 °F 33.1 °F 83% 29.75 in 10.0 mi West 5.8 mph - 0.00 in   Overcast
5:51 AM 37.9 °F 33.5 °F 33.1 °F 83% 29.75 in 10.0 mi WSW 5.8 mph - N/A   Overcast
6:51 AM 37.9 °F 32.7 °F 33.1 °F 83% 29.76 in 10.0 mi West 6.9 mph - N/A   Overcast
7:51 AM 37.9 °F 32.7 °F 32.0 °F 79% 29.78 in 10.0 mi WNW 6.9 mph - 0.00 in Rain Light Rain
8:25 AM 37.4 °F 28.5 °F 30.2 °F 75% 29.77 in 10.0 mi NW 15.0 mph 21.9 mph 0.00 in Rain Light Rain
8:51 AM 37.0 °F 31.0 °F 30.9 °F 79% 29.81 in 10.0 mi WNW 8.1 mph - 0.00 in   Overcast
9:16 AM 37.4 °F 30.8 °F 32.0 °F 81% 29.78 in 10.0 mi West 9.2 mph - N/A   Overcast
9:51 AM 37.9 °F 30.5 °F 33.1 °F 83% 29.82 in 10.0 mi West 11.5 mph - N/A   Overcast
10:44 AM 39.2 °F 32.5 °F 32.0 °F 75% 29.81 in 10.0 mi NW 10.4 mph - N/A   Overcast
10:51 AM 39.0 °F 32.3 °F 33.1 °F 79% 29.84 in 10.0 mi WNW 10.4 mph 20.7 mph N/A   Overcast
11:25 AM 37.4 °F 30.3 °F 32.0 °F 81% 29.82 in 10.0 mi WNW 10.4 mph - 0.00 in Rain Light Rain
11:51 AM 39.9 °F 32.5 °F 32.0 °F 73% 29.86 in 10.0 mi WNW 12.7 mph - 0.00 in   Overcast
12:15 PM 39.2 °F 31.2 °F 30.2 °F 70% 29.84 in 10.0 mi NW 13.8 mph - N/A   Overcast
12:43 PM 39.2 °F 31.6 °F 28.4 °F 65% 29.84 in 10.0 mi NW 12.7 mph 23.0 mph N/A   Overcast
12:51 PM 39.9 °F 31.4 °F 28.0 °F 63% 29.87 in 10.0 mi NW 16.1 mph 24.2 mph N/A   Overcast
1:51 PM 39.0 °F 30.3 °F 28.0 °F 65% 29.88 in 10.0 mi WNW 16.1 mph 24.2 mph N/A   Overcast
2:51 PM 39.0 °F 30.6 °F 28.0 °F 65% 29.90 in 10.0 mi WNW 15.0 mph 20.7 mph N/A   Overcast
3:51 PM 39.0 °F 31.8 °F 28.0 °F 65% 29.91 in 10.0 mi WNW 11.5 mph 17.3 mph N/A   Overcast
4:51 PM 37.9 °F 30.9 °F 28.9 °F 70% 29.94 in 10.0 mi WNW 10.4 mph 18.4 mph 0.00 in Rain Light Rain
5:51 PM 37.0 °F 29.3 °F 30.0 °F 76% 29.96 in 3.0 mi West 11.5 mph - 0.00 in Rain Light Rain
6:16 PM 37.4 °F 32.1 °F 30.2 °F 75% 29.93 in 4.0 mi West 6.9 mph - 0.00 in Rain Light Rain
6:51 PM 37.0 °F 28.9 °F 30.0 °F 76% 29.97 in 8.0 mi WNW 12.7 mph 19.6 mph 0.00 in Rain Light Rain
7:51 PM 37.0 °F 28.9 °F 28.9 °F 73% 29.99 in 10.0 mi West 12.7 mph - 0.00 in   Overcast
8:51 PM 36.0 °F 30.3 °F 30.0 °F 79% 30.00 in 8.0 mi WNW 6.9 mph - 0.00 in Rain Light Rain
9:13 PM 37.4 °F 30.8 °F 28.4 °F 70% 29.97 in 10.0 mi WNW 9.2 mph - 0.00 in   Overcast
9:51 PM 37.0 °F 31.0 °F 27.0 °F 67% 30.01 in 10.0 mi WNW 8.1 mph - 0.00 in   Overcast
10:51 PM 37.0 °F 32.4 °F 27.0 °F 67% 30.01 in 10.0 mi NW 5.8 mph - N/A   Overcast
11:51 PM 37.0 °F 31.0 °F 27.0 °F 67% 30.01 in 10.0 mi WNW 8.1 mph - N/A   Overcast